Theta_e
345 345 344 340 343 349 350 348 345 346 345 347 349 345 343 347 348 344 343 340 341 339 339 338 343 339 337 336 335 334 334 336 339 338 337 341 341 343 347 345 344 343 344 343 343 343 344 344 343 342 341 341 341 338 337 336 334 334 333 331 331 332 332 332 332 330 330 331 332 331 331 331 331 331 330 330 330 330 330 331 333 334 334 334 334
346 346 342 341 347 348 352 351 345 346 347 344 344 346 348 346 344 343 340 347 342 340 341 340 341 338 337 336 338 337 337 341 338 337 346 341 344 340 346 346 343 342 343 344 344 344 344 345 345 344 341 343 341 339 337 336 334 334 334 332 331 333 332 333 332 331 331 332 332 332 332 332 331 331 331 330 330 330 330 330 332 333 334 333 333
346 346 346 344 347 349 349 347 348 349 351 346 353 351 348 348 346 345 348 344 346 345 341 344 340 341 340 336 337 347 340 336 339 337 337 341 341 343 339 345 344 343 342 343 345 344 344 344 344 345 344 344 342 340 338 335 335 334 335 333 332 333 332 332 332 331 331 332 332 332 332 332 332 332 331 331 331 331 330 331 331 333 333 333 332
354 349 350 349 349 347 350 350 348 350 349 349 349 350 347 345 343 344 346 346 342 342 342 341 340 337 337 335 339 339 339 339 339 338 336 339 344 339 339 342 345 343 343 342 343 345 344 344 344 345 345 345 343 341 340 337 335 335 335 334 333 333 333 332 332 331 331 332 333 332 332 332 332 332 331 331 331 331 331 331 331 332 333 332 331
354 351 348 347 348 352 349 349 352 352 351 350 350 350 351 346 350 347 347 344 341 340 342 339 337 338 339 335 336 341 343 340 337 338 339 337 339 343 340 338 338 344 344 343 342 342 344 344 344 344 345 346 345 343 342 339 337 336 335 335 334 334 334 333 332 331 332 332 332 332 332 332 332 332 332 332 332 331 331 331 330 331 332 331 331
352 350 351 348 352 349 346 347 351 350 351 353 349 348 349 346 347 345 345 344 339 339 339 339 338 338 337 339 337 338 340 340 336 336 340 337 341 341 338 336 337 338 341 343 342 342 342 342 344 344 344 344 344 343 341 341 339 337 335 335 336 334 334 334 333 332 332 332 333 332 332 333 333 332 332 332 332 331 331 330 330 330 331 330 330
351 351 349 349 344 347 345 347 347 349 346 348 347 347 346 343 341 341 343 342 339 339 339 337 338 337 338 339 338 338 339 338 338 338 337 337 340 338 338 339 340 342 342 339 344 343 343 342 342 343 344 344 344 344 343 342 340 338 337 336 335 335 334 334 334 332 332 332 332 332 332 333 333 332 332 332 332 332 331 331 330 330 330 330 330
351 350 351 347 346 345 349 351 348 347 347 347 345 343 345 343 342 341 339 338 338 337 338 338 340 338 338 338 340 341 339 338 339 338 338 339 337 339 340 341 340 340 344 340 339 341 343 342 341 341 342 343 344 344 344 342 341 339 338 337 336 335 335 334 334 333 332 332 332 332 332 333 333 333 333 332 331 332 331 331 330 330 330 330 331
348 348 351 348 347 347 347 347 351 348 348 348 345 341 342 343 344 344 342 338 339 337 336 336 337 338 338 339 339 340 339 340 340 340 342 339 338 337 338 340 341 347 342 340 338 339 342 342 342 340 340 340 341 344 345 346 344 342 339 338 337 337 336 335 334 333 333 333 333 333 332 333 333 333 333 332 332 332 332 331 330 330 331 331 331
346 346 348 347 347 347 345 345 344 347 345 346 343 343 342 343 340 343 341 340 337 335 335 336 337 337 337 337 338 339 338 339 340 340 339 338 339 339 340 341 342 341 340 341 340 341 341 341 342 341 340 339 340 342 344 345 345 342 340 339 338 338 337 337 335 334 333 333 333 334 332 333 333 333 333 333 332 332 332 331 331 330 331 331 331
343 343 343 342 341 341 341 342 341 341 340 339 339 339 339 340 339 338 341 340 338 338 337 337 336 337 336 336 338 339 340 340 340 339 339 339 339 339 342 339 340 339 339 339 340 341 340 342 340 339 339 339 339 340 342 343 343 342 341 339 338 337 337 337 337 336 334 334 334 334 333 333 333 333 333 333 333 333 332 332 331 331 331 331 331
341 342 342 341 340 340 340 340 340 339 338 336 336 336 336 336 336 336 336 336 338 339 338 337 336 336 335 337 339 340 340 340 340 340 339 339 339 339 337 337 337 339 338 338 339 339 340 341 341 340 339 339 338 337 338 339 340 341 341 341 339 338 338 338 338 338 336 335 334 334 334 333 333 333 333 333 333 332 332 332 332 331 332 331 331
339 340 338 339 339 339 338 336 336 336 335 334 335 335 335 335 334 335 334 333 333 335 336 335 333 330 332 331 333 335 336 338 339 339 339 339 340 337 335 336 337 336 336 337 337 336 338 338 340 341 339 339 337 336 337 337 338 340 341 341 340 339 338 339 339 340 338 336 334 334 334 334 333 333 333 333 332 332 332 332 331 331 331 331 331
337 337 336 335 335 335 335 334 334 333 334 334 333 334 333 332 331 330 332 331 330 334 334 332 328 326 324 325 327 331 334 336 338 341 340 338 336 335 337 338 338 337 338 337 336 335 334 335 336 338 339 339 338 337 335 335 336 337 340 340 341 340 340 340 339 341 340 337 335 334 334 334 334 333 333 333 333 333 332 331 331 331 331 331 330
332 333 332 332 332 332 332 333 332 332 331 331 331 330 331 330 329 328 327 329 329 332 331 331 325 327 327 325 321 321 325 334 335 339 339 338 338 335 335 335 336 336 336 335 334 334 334 333 334 335 339 338 338 338 337 336 335 337 338 339 340 340 341 340 340 341 342 340 337 335 335 334 334 334 334 333 332 332 332 331 331 331 331 330 330
328 329 329 328 329 328 329 330 329 330 329 328 328 327 328 328 327 327 326 322 323 325 329 330 330 326 319 320 320 321 317 322 323 327 330 331 333 333 335 335 334 333 335 334 333 333 334 333 333 335 336 337 338 338 338 337 338 338 338 336 337 340 341 341 341 341 342 340 339 337 334 334 334 334 334 333 332 332 331 331 331 331 331 330 330
327 326 327 326 326 327 326 327 327 327 327 325 326 326 326 325 324 324 323 322 320 322 324 327 327 329 325 322 319 317 317 320 322 322 329 326 327 329 331 333 333 333 333 332 333 332 332 331 332 335 337 337 337 337 338 338 338 338 337 337 337 337 338 340 339 341 343 340 339 338 335 334 334 333 333 333 333 332 332 331 331 330 331 331 330
324 324 324 325 324 325 325 324 325 326 326 327 325 323 322 322 322 322 322 323 321 319 319 323 324 326 325 324 324 319 318 320 319 315 324 325 326 327 328 329 330 329 330 328 328 328 330 331 331 332 334 336 335 336 336 337 338 337 337 336 336 338 334 336 340 337 342 338 338 338 337 335 334 333 334 333 333 332 332 332 331 331 331 329 329
323 322 322 323 324 324 323 323 322 322 325 322 321 321 321 321 323 322 321 321 321 317 317 318 320 321 321 322 322 321 322 318 315 317 314 320 323 324 325 328 328 328 328 328 327 327 329 331 331 331 332 333 334 335 336 337 339 338 338 335 334 334 332 329 338 341 341 342 339 339 339 335 335 333 334 333 333 333 332 331 331 331 330 329 329
321 320 321 321 322 322 321 321 320 320 321 319 319 320 321 322 321 321 320 319 318 316 315 317 314 315 318 318 318 319 319 320 320 317 315 312 314 320 322 322 323 324 328 327 326 327 328 329 330 329 329 332 332 334 336 336 336 337 337 332 332 331 332 330 328 334 338 339 343 338 338 338 335 334 335 333 332 333 332 332 331 331 331 330 329
320 320 320 320 320 320 319 318 318 319 319 319 319 319 320 319 318 318 317 317 316 316 316 314 314 314 314 315 316 316 316 317 318 317 313 311 311 312 313 318 319 321 322 323 324 324 324 325 327 328 329 330 332 332 332 334 335 335 336 332 332 331 330 330 325 321 325 337 341 340 338 339 336 337 335 333 333 333 333 332 332 331 330 330 330
320 319 319 318 318 318 317 317 317 318 318 317 317 318 318 317 317 317 315 315 314 315 315 313 314 314 314 313 312 313 313 313 314 313 313 313 309 309 311 311 310 314 318 319 319 320 321 322 324 326 326 327 328 329 329 330 331 333 331 327 328 329 328 328 324 320 320 324 334 337 338 339 338 339 336 334 334 334 333 332 332 332 332 331 330
320 318 318 317 317 317 317 316 317 318 317 315 316 316 316 315 315 315 314 314 313 314 314 314 313 313 312 313 311 311 310 310 310 311 310 309 308 308 309 310 310 309 313 315 316 317 318 320 321 322 324 326 329 330 331 332 331 331 327 326 326 328 328 325 321 318 321 324 327 332 337 337 338 335 334 334 334 334 334 334 334 333 332 332 331
318 316 316 316 316 315 316 315 315 315 315 316 316 316 316 314 315 314 313 314 314 314 313 312 312 312 312 312 312 312 312 312 312 311 309 308 308 306 307 308 308 309 311 312 314 315 316 317 318 320 320 320 331 334 335 333 333 331 330 328 325 326 327 325 318 318 316 318 322 324 335 339 338 335 335 334 335 334 335 334 334 333 333 332 332
314 314 314 314 314 314 313 313 313 314 315 315 315 315 316 315 313 314 314 313 313 313 311 312 311 310 311 312 313 314 312 313 312 310 310 309 308 305 306 308 304 305 307 308 309 311 313 315 317 316 317 318 322 321 328 331 326 327 328 328 326 325 323 325 326 320 314 313 317 322 330 336 337 337 334 333 335 334 332 332 331 326 328 327 329
313 313 313 312 312 312 313 313 313 313 313 314 315 314 315 312 312 313 313 314 313 313 312 313 312 312 311 310 310 312 312 311 309 309 307 307 305 304 304 304 304 302 305 305 307 305 308 311 312 313 314 316 315 315 317 317 317 320 325 327 328 324 321 320 324 325 321 317 316 320 325 330 333 334 335 334 332 331 331 328 325 323 321 319 319
311 313 313 313 312 312 311 312 312 312 312 312 313 313 313 312 311 312 313 314 313 312 311 311 310 311 310 310 310 310 308 308 308 308 307 307 306 305 303 299 299 300 300 302 303 303 304 307 309 310 311 312 311 311 312 312 315 319 320 327 328 325 322 318 319 321 322 321 317 316 319 322 325 328 329 328 329 325 324 325 324 322 321 318 319
312 312 312 312 312 310 309 310 311 311 311 311 310 310 311 311 310 310 309 312 311 310 309 310 308 310 309 310 309 308 307 307 307 307 307 307 306 305 303 301 298 295 298 298 299 300 304 303 306 308 308 308 309 310 313 313 312 315 315 316 321 326 324 319 318 320 320 320 318 315 315 316 317 321 322 323 325 325 325 326 325 322 320 319 321
312 313 312 312 311 311 310 309 310 310 310 310 310 309 310 310 309 308 308 310 310 310 309 308 308 309 308 308 306 306 305 307 307 306 306 306 305 304 303 301 300 297 295 294 296 297 300 303 300 303 306 306 306 308 309 309 312 313 313 315 318 327 326 322 317 316 317 316 317 317 316 315 315 317 322 325 325 325 325 323 322 321 319 320 323
312 312 312 311 311 311 309 309 309 309 309 309 309 309 309 308 308 308 308 309 308 309 308 308 308 308 308 307 305 305 305 305 305 305 305 305 303 303 302 302 301 298 297 294 295 298 298 301 302 301 303 304 306 306 307 306 312 314 313 312 313 320 324 320 318 315 314 314 315 313 313 314 315 319 323 325 324 322 321 320 320 319 319 321 325
312 311 310 309 309 309 309 308 308 308 308 308 309 308 308 307 307 307 307 307 307 306 308 308 307 307 306 306 305 304 304 304 304 304 304 303 301 301 300 301 300 299 297 296 293 297 300 297 300 303 302 303 305 305 306 307 310 311 310 311 312 314 316 322 319 316 315 313 311 313 316 313 312 314 318 322 323 322 320 320 320 320 322 324 321
311 310 309 308 308 307 307 307 307 307 306 307 308 307 308 307 307 306 306 306 305 305 306 306 307 306 304 303 303 303 303 302 302 302 301 300 300 299 299 299 298 298 298 296 294 293 298 298 299 301 302 302 303 303 304 306 308 311 308 310 312 314 314 322 322 317 316 313 312 311 314 313 311 312 314 318 321 322 320 321 320 322 323 319 317
310 309 308 307 306 306 306 305 304 304 305 305 306 306 306 306 307 306 306 305 305 305 305 304 305 304 304 302 302 302 302 301 300 300 299 299 299 298 299 298 297 297 297 295 293 293 296 299 299 299 301 301 301 303 303 304 304 306 309 308 310 311 313 317 326 320 316 314 312 311 310 310 311 314 316 317 321 323 322 319 318 318 317 316 315
309 307 308 308 307 306 305 303 303 303 303 303 304 304 303 305 307 307 306 305 305 304 304 302 303 304 304 302 301 301 302 300 299 298 298 298 297 297 297 297 296 296 297 295 294 293 292 296 297 299 299 301 299 302 301 302 303 305 305 307 309 310 312 315 322 328 318 317 314 311 310 309 309 311 313 312 314 316 318 314 313 314 315 315 311
309 308 308 307 307 305 303 303 302 301 301 301 302 302 302 303 304 305 306 305 305 304 303 302 302 302 302 301 300 300 301 299 298 298 298 297 297 296 296 296 296 296 297 297 295 293 293 293 296 296 297 298 298 299 301 302 303 304 304 305 306 309 310 312 315 322 317 316 312 309 309 309 309 309 309 310 311 313 314 313 312 312 312 313 309
308 308 308 306 306 304 303 302 301 300 299 299 300 301 302 302 304 305 304 305 304 303 303 302 302 301 300 300 299 299 299 297 297 297 297 297 296 296 295 296 296 296 296 296 296 294 293 292 294 295 297 296 298 300 301 302 301 302 303 304 305 306 308 311 318 317 315 313 313 312 310 310 309 309 309 309 310 311 312 313 312 311 311 310 310
308 308 307 306 305 304 303 301 300 299 298 298 299 300 301 303 305 305 304 304 304 303 304 303 303 301 300 299 299 298 298 297 296 296 296 296 296 295 295 295 295 296 296 295 295 295 294 292 293 296 297 297 298 299 300 299 299 300 301 302 303 305 306 309 309 312 313 313 314 313 310 309 309 308 308 308 309 310 310 311 311 311 310 310 310
307 307 306 305 304 302 302 300 299 298 297 298 298 298 299 301 303 305 305 305 305 303 303 302 301 301 300 299 299 298 297 296 296 296 296 295 295 294 294 294 295 295 294 294 295 294 294 294 294 294 296 296 296 297 298 298 298 298 299 300 302 303 303 303 305 309 313 316 319 321 315 309 308 308 308 308 308 308 310 310 310 309 309 309 309
306 306 306 305 305 303 302 300 298 297 297 297 297 297 298 299 300 303 305 304 304 303 302 302 301 301 300 299 299 299 297 297 296 296 295 294 294 294 294 294 295 294 294 294 294 294 294 293 294 294 294 296 296 294 297 299 298 298 297 297 298 300 301 302 302 306 309 311 311 310 313 313 312 312 309 307 307 308 309 309 309 309 309 309 308
307 306 305 304 304 303 302 300 298 297 296 296 296 295 296 297 298 300 303 304 303 301 302 302 302 300 300 299 299 298 298 298 297 295 294 293 293 293 294 294 294 294 294 294 294 293 293 293 292 292 294 294 295 296 297 297 296 296 298 297 295 297 299 301 302 302 304 305 306 310 312 313 312 311 308 308 308 308 308 309 310 310 309 308 306
308 306 305 305 303 302 301 300 297 297 296 296 295 294 294 295 297 300 301 303 302 302 301 302 301 300 299 299 299 299 300 302 299 298 297 296 294 292 293 294 294 294 294 294 293 293 292 292 292 293 293 293 294 294 294 294 293 294 296 297 296 297 298 298 300 302 302 302 304 307 312 317 318 316 314 312 312 310 310 310 312 310 309 308 306
306 306 305 304 302 301 299 298 298 297 295 296 295 293 293 294 295 299 300 303 303 302 301 301 300 300 299 299 301 302 301 301 298 296 295 295 296 295 294 294 294 294 294 293 293 292 292 291 291 292 291 291 292 293 293 294 295 295 294 294 293 295 296 295 297 299 302 302 303 307 309 313 314 316 316 313 314 312 312 312 315 313 309 306 306
306 306 305 303 301 299 298 297 297 296 295 295 293 291 292 292 295 296 299 302 303 302 301 299 299 299 298 298 299 299 300 299 297 295 294 294 294 294 295 296 297 296 294 293 293 293 292 292 292 292 291 291 292 293 292 293 294 293 293 293 292 293 292 291 291 296 302 303 301 301 303 308 309 308 312 315 315 314 313 314 310 309 308 306 306
305 306 305 303 302 300 298 297 296 296 295 294 291 292 292 291 293 295 299 303 302 302 300 299 299 299 298 298 298 299 298 297 296 295 295 295 294 294 294 294 294 294 294 294 293 293 293 291 291 291 291 291 291 292 292 292 292 293 293 292 292 291 291 291 292 292 298 301 300 299 299 303 306 307 307 312 317 316 315 312 308 308 307 306 306
305 304 304 305 303 301 298 296 295 295 295 293 291 292 292 291 291 294 299 304 301 301 300 299 299 299 298 298 297 298 298 300 298 295 294 294 295 295 295 296 296 295 293 292 293 295 294 292 291 291 291 292 291 292 293 293 294 292 292 292 292 291 292 291 292 294 296 300 299 297 296 300 303 303 305 309 316 318 316 309 308 307 306 306 306
303 304 304 304 304 302 300 298 296 295 295 293 291 292 292 291 291 293 301 302 302 302 300 299 300 300 298 298 297 296 296 296 295 294 293 293 293 294 294 295 295 296 295 294 294 294 294 294 293 291 293 294 293 293 295 295 293 292 291 291 292 291 291 291 293 295 297 299 297 297 296 298 302 304 304 308 315 318 318 312 306 306 306 305 305
303 302 302 303 304 303 301 299 298 296 295 292 291 291 291 291 292 296 301 301 301 301 302 301 300 301 299 299 297 296 296 295 295 293 293 292 292 293 294 294 294 294 295 295 295 294 295 295 294 294 294 295 295 295 295 295 294 294 294 292 293 293 293 294 295 296 297 299 299 298 294 298 303 304 306 309 315 318 318 310 305 305 305 305 304
303 302 302 302 303 303 304 301 299 296 295 291 291 291 292 291 293 299 300 298 299 299 300 301 299 300 299 297 296 296 296 295 295 292 292 293 292 292 292 293 294 294 294 297 295 294 295 295 295 295 295 295 295 295 295 295 295 295 295 295 294 293 293 292 291 294 295 300 301 300 298 299 304 305 306 311 316 316 317 317 306 305 305 305 304
302 301 301 300 300 301 301 303 300 297 295 292 291 291 291 291 294 297 298 297 297 297 297 299 299 301 300 297 298 296 294 294 294 291 291 292 292 292 292 292 293 293 293 295 295 294 294 293 293 293 293 293 293 293 293 293 294 295 294 292 291 292 291 290 291 293 294 298 301 303 302 301 304 306 307 312 315 315 316 316 314 305 305 304 304
301 301 301 300 299 299 299 299 302 298 295 294 291 291 291 291 294 296 297 296 295 295 296 298 299 300 298 302 298 295 294 294 292 290 291 293 292 292 292 291 292 292 292 294 295 295 295 294 294 294 293 293 293 294 294 294 294 295 293 290 292 292 290 291 290 292 294 296 298 303 302 302 305 308 309 313 312 314 316 316 315 311 305 304 303
302 302 301 301 301 300 299 300 301 301 297 295 292 291 291 291 294 295 296 295 294 293 295 296 298 298 299 299 298 295 295 294 291 291 290 292 291 291 291 291 291 291 291 292 292 292 294 294 294 295 294 295 296 295 296 294 294 296 295 294 294 292 290 290 291 292 291 293 298 302 299 301 303 307 310 310 309 312 315 315 313 313 309 309 308
Wind_Speed
2 1 3 4 4 2 2 2 1 3 2 4 2 2 2 2 2 2 3 3 3 5 4 3 0 4 3 3 4 4 4 3 1 2 2 1 2 6 11 10 11 12 12 14 14 15 15 14 14 14 14 8 14 14 12 10 8 8 7 7 7 7 6 6 6 4 4 4 2 4 3 3 3 4 4 4 5 4 4 5 7 8 8 8 8
3 4 4 6 6 4 1 3 6 4 4 0 5 3 2 1 3 2 3 0 1 4 5 4 1 5 4 3 3 4 4 3 3 3 0 1 1 4 9 10 11 12 12 14 15 15 15 15 15 15 13 11 13 14 13 11 10 9 9 9 8 8 7 6 7 6 6 5 4 4 5 4 4 4 4 4 5 5 6 5 7 7 8 8 8
5 4 6 7 1 1 2 2 2 3 2 4 2 1 2 2 2 2 0 2 2 3 3 2 3 2 3 4 2 2 2 4 4 3 3 2 2 2 3 10 12 11 12 13 14 15 15 16 16 16 16 12 14 14 13 12 11 11 10 10 9 9 9 8 8 7 7 6 6 6 5 6 6 6 5 5 5 6 6 7 8 8 9 8 8
0 1 1 2 1 3 2 0 0 2 2 2 1 1 2 2 3 3 3 2 4 3 3 3 3 4 4 5 3 3 3 1 3 3 4 3 4 4 4 3 8 12 13 13 13 14 15 16 16 17 16 15 13 15 15 15 14 12 10 11 10 10 10 9 9 8 8 8 7 8 7 6 7 7 6 6 6 6 7 7 7 9 9 9 9
0 1 2 3 2 1 1 1 1 1 1 1 1 1 0 3 1 2 2 3 4 3 3 3 3 4 3 5 3 2 2 1 3 5 6 3 4 2 3 5 6 11 14 14 15 14 14 16 17 17 17 17 15 15 17 17 16 13 12 12 12 11 11 11 10 10 9 9 8 8 8 7 7 8 7 7 7 6 7 7 7 9 10 10 9
0 1 1 2 1 2 3 2 1 1 0 0 1 1 1 2 1 1 1 2 3 4 3 3 4 4 3 3 3 5 2 3 3 4 4 6 3 6 6 6 6 4 6 14 16 15 15 15 16 16 17 18 16 17 17 17 16 14 13 13 11 12 12 12 12 10 10 11 10 10 9 8 8 8 8 8 8 8 7 7 7 9 10 9 9
2 2 1 1 2 1 3 2 3 3 4 3 3 2 2 2 5 4 2 3 3 3 3 4 3 4 3 3 5 4 3 4 3 3 5 4 4 5 5 6 5 5 6 5 9 14 14 16 15 16 17 17 17 16 17 18 13 15 15 14 13 14 13 12 12 12 11 11 11 11 10 9 9 9 9 9 9 9 8 8 8 9 9 9 9
2 2 2 1 1 2 0 2 3 2 3 3 3 3 3 3 2 3 4 3 4 5 4 4 3 4 4 5 4 3 4 4 4 4 4 4 4 3 3 4 4 4 5 5 5 9 15 16 17 17 17 16 17 18 18 17 17 17 15 15 15 15 14 14 14 14 13 13 12 13 12 10 10 11 11 10 10 10 9 9 9 10 10 9 9
3 3 2 3 3 3 2 3 1 2 1 1 2 3 3 3 2 2 3 3 3 5 4 4 4 3 4 4 4 3 3 4 3 4 4 4 4 4 4 4 3 5 3 6 5 5 11 16 17 18 18 17 17 17 17 16 16 17 17 17 16 15 16 15 15 15 15 13 13 13 13 12 11 12 12 12 11 11 11 10 10 10 10 10 11
3 3 3 2 2 2 3 4 3 3 4 2 4 3 3 3 4 3 3 3 3 4 5 5 5 5 4 4 4 4 4 4 4 4 4 5 4 3 4 4 4 4 5 4 4 5 5 11 17 17 18 17 18 18 18 17 16 17 15 18 16 16 18 18 17 17 16 15 15 15 14 13 13 13 13 13 12 12 12 11 11 11 11 12 11
6 6 6 6 6 6 6 7 7 6 5 6 6 5 6 5 4 4 3 3 3 3 4 5 5 5 6 7 6 6 5 5 4 4 4 4 4 5 4 5 4 4 3 4 4 5 5 5 6 7 10 17 17 17 17 18 17 18 19 19 17 18 19 19 18 19 18 18 16 16 14 14 14 14 14 14 14 13 14 13 12 12 12 12 12
7 7 7 6 6 6 7 8 7 6 7 8 7 6 8 7 7 7 7 6 4 3 3 5 6 6 7 6 6 6 6 6 5 4 4 3 3 4 5 5 5 3 3 4 3 4 4 3 5 6 6 10 18 17 18 18 17 17 19 20 19 19 19 20 20 20 20 19 18 17 14 14 15 15 16 15 15 15 14 14 14 14 13 13 12
7 7 7 7 6 6 6 7 7 7 6 6 6 6 6 6 6 5 7 7 6 6 6 7 7 5 5 6 6 6 8 7 6 5 3 3 3 5 6 5 4 3 3 3 4 5 5 5 5 6 6 5 9 17 18 18 17 18 20 21 21 21 21 21 21 21 21 21 19 18 16 15 15 15 16 16 15 15 16 15 15 15 14 13 13
7 7 7 8 7 6 6 6 6 5 5 5 6 5 6 6 6 6 6 6 5 6 7 8 6 8 10 9 7 4 5 4 1 3 3 4 5 6 5 3 3 3 3 5 6 7 6 5 5 6 7 6 5 6 9 12 14 18 19 20 20 21 22 22 23 22 22 21 21 20 18 17 17 16 17 17 17 17 16 15 16 16 15 15 13
9 8 7 7 7 7 6 6 6 5 5 5 4 6 5 6 7 6 7 5 5 5 7 6 6 7 7 5 5 9 7 1 5 1 3 4 5 6 6 6 6 5 4 3 5 5 6 4 4 4 5 6 6 5 7 8 10 16 20 20 20 22 23 23 24 24 22 20 21 21 20 19 19 19 19 17 17 17 16 17 17 17 16 15 14
8 7 7 7 7 7 6 5 6 6 6 5 5 6 6 6 6 6 6 6 6 6 6 6 5 8 7 5 7 4 6 3 11 8 8 7 4 4 4 4 5 6 4 4 5 5 5 5 6 4 6 6 6 6 6 7 12 17 19 20 21 22 24 24 25 24 24 21 21 23 20 20 20 20 20 17 15 15 15 16 18 18 17 17 16
6 7 6 6 6 6 6 6 5 5 5 5 5 6 6 6 7 6 7 6 7 5 5 7 8 7 5 6 4 3 5 8 10 9 4 8 9 8 6 6 4 4 4 4 4 5 5 5 4 4 4 5 5 5 5 6 8 8 13 18 20 21 22 24 26 25 24 23 23 22 20 18 21 19 19 17 15 16 16 18 18 19 19 18 17
6 6 7 6 6 5 5 5 5 5 4 3 6 6 7 7 7 6 7 8 7 6 6 6 8 7 8 6 5 5 7 10 8 7 10 6 7 9 10 9 6 6 5 5 4 5 4 4 4 4 4 4 5 5 6 7 7 7 8 10 19 21 22 22 24 25 25 18 23 23 25 23 21 19 19 18 18 18 19 20 19 19 20 19 18
6 6 6 6 4 5 5 5 6 5 5 7 6 6 5 5 6 7 7 7 7 7 8 8 8 6 9 8 8 7 7 8 7 9 9 9 8 7 8 10 11 11 10 8 9 8 7 6 6 6 6 6 6 6 6 7 10 10 11 13 16 20 21 22 23 27 26 23 24 26 27 25 23 19 21 20 19 18 19 20 20 21 21 19 19
6 7 6 4 3 5 5 6 6 6 5 6 6 5 5 5 8 7 6 6 7 7 6 7 8 7 9 9 8 7 7 6 6 7 8 9 12 10 8 10 12 10 8 10 11 10 10 9 9 8 6 5 5 5 5 7 7 9 10 14 15 18 21 22 22 23 26 27 25 25 25 24 25 23 23 22 19 19 19 20 21 22 22 20 20
6 5 4 6 6 6 6 6 6 6 6 6 6 5 5 8 7 7 8 8 8 7 6 7 7 7 9 8 8 8 8 7 8 10 9 10 9 10 12 13 11 7 9 10 11 13 13 13 12 11 9 7 6 7 5 7 7 7 9 15 19 19 20 21 21 21 21 23 26 25 28 28 25 27 24 23 19 20 20 21 22 22 22 21 21
4 5 6 8 7 6 6 7 6 6 6 7 6 6 7 8 8 8 8 7 6 5 7 7 6 7 7 7 8 8 8 7 8 10 8 6 8 11 11 13 13 11 11 11 14 13 13 14 14 12 11 9 8 10 9 6 5 7 9 16 16 16 16 18 20 20 20 21 23 24 28 27 26 28 26 25 25 23 22 22 23 24 24 23 23
4 5 6 6 6 6 6 7 7 6 6 6 6 6 6 6 5 6 6 5 4 5 5 4 4 5 6 6 7 7 7 8 9 9 9 8 10 11 11 10 12 15 12 13 13 14 12 11 11 12 11 11 5 6 5 3 6 7 8 6 8 11 14 18 13 15 19 21 22 20 23 27 26 25 24 26 25 25 25 25 25 25 25 25 24
4 5 5 6 6 6 7 6 6 6 5 4 5 5 4 4 4 4 3 3 3 3 3 3 4 4 4 4 3 4 5 5 6 6 7 7 8 10 10 11 12 9 12 12 12 11 12 11 11 11 12 12 6 6 4 4 4 12 10 10 8 9 11 11 15 19 19 20 22 21 21 26 27 25 24 26 26 27 26 26 26 25 25 26 25
6 5 5 6 5 5 6 6 5 5 5 5 5 5 4 4 5 4 3 3 4 3 3 3 3 3 4 3 2 2 3 3 5 5 5 5 6 8 9 9 11 12 11 11 10 10 10 10 10 12 13 12 10 10 9 9 11 16 14 8 10 8 11 14 17 18 19 21 22 21 20 23 24 24 22 25 27 28 26 26 24 23 22 23 23
5 5 5 5 5 6 6 6 6 5 6 5 5 6 5 6 6 5 5 4 4 4 4 4 4 5 5 5 6 4 4 6 6 6 7 7 7 7 9 8 9 10 9 10 10 12 9 8 10 11 11 11 12 13 11 13 14 20 18 9 10 11 12 14 17 21 20 18 17 20 25 20 19 23 23 24 26 25 26 23 22 21 22 21 21
5 4 5 5 5 5 6 6 6 5 6 5 5 5 5 5 5 5 4 4 3 4 5 5 6 6 6 5 6 5 7 6 5 6 6 6 7 7 9 12 11 9 10 10 11 10 12 10 10 10 10 11 11 12 13 13 15 20 22 11 12 16 13 13 14 16 21 22 19 19 23 25 23 22 23 23 23 23 23 22 21 21 22 22 22
5 5 5 5 5 6 6 7 6 6 6 6 6 5 5 5 5 5 5 4 4 6 5 5 6 6 6 6 6 6 7 6 6 6 6 7 7 7 8 9 11 13 11 11 10 11 12 12 10 9 10 11 12 11 14 15 12 20 20 13 12 12 14 14 14 15 18 20 20 19 22 24 25 23 23 23 23 25 25 25 26 22 22 22 22
4 4 5 4 5 5 6 6 6 6 6 6 6 6 5 5 4 5 5 5 4 4 4 4 5 5 5 6 7 7 7 6 5 6 6 6 7 7 8 9 9 11 11 13 11 12 13 12 12 12 12 12 12 13 13 12 14 17 14 13 13 11 12 14 15 16 17 19 21 21 23 24 20 23 22 23 26 27 26 25 25 23 22 22 22
4 4 4 5 5 6 5 5 5 6 6 6 6 6 5 5 5 5 5 4 4 4 5 5 5 5 5 4 5 5 6 6 6 7 7 9 9 10 9 9 9 10 10 12 12 9 12 12 11 13 15 15 12 12 13 14 17 17 12 14 15 14 15 17 17 17 17 18 20 21 22 23 22 25 25 25 25 24 22 25 25 24 24 23 25
4 4 4 5 4 5 5 5 5 6 6 6 6 5 5 5 5 5 5 5 5 5 4 4 4 5 6 5 5 5 6 6 7 7 8 10 10 9 9 9 9 10 11 11 13 8 10 13 13 14 15 16 14 14 12 12 15 18 15 13 14 20 25 16 18 18 18 18 18 19 20 22 23 23 24 26 27 24 25 26 26 25 25 25 24
4 5 5 5 5 6 6 6 6 6 6 6 6 6 5 4 4 4 5 5 5 5 4 6 5 6 6 6 7 6 7 7 8 9 9 9 9 8 8 8 9 9 9 10 12 14 10 12 12 15 18 17 16 15 14 12 13 18 14 14 15 19 16 12 15 18 19 18 18 18 19 20 21 23 24 26 27 26 24 26 26 27 27 25 27
5 5 5 6 7 6 7 7 7 7 7 7 6 5 5 4 4 4 4 5 5 4 5 6 5 5 6 6 7 8 9 8 7 7 8 8 8 8 8 8 8 8 9 11 13 15 11 9 11 12 14 16 15 14 17 15 15 13 14 14 15 14 13 12 11 12 15 18 19 18 18 20 21 22 24 25 25 26 26 25 25 26 25 26 26
5 6 6 4 6 6 7 8 8 8 8 7 7 6 6 5 3 4 4 5 5 5 4 5 4 5 5 6 8 9 9 9 9 9 8 8 9 8 9 9 9 9 9 10 12 13 17 12 12 11 12 13 15 15 16 17 16 15 16 14 13 14 13 12 11 10 14 19 20 19 19 20 21 22 23 23 25 26 26 25 26 27 26 27 27
5 5 5 6 7 7 8 7 7 8 8 8 7 7 6 7 6 4 4 4 4 5 4 5 6 6 6 6 8 9 7 8 9 8 7 8 9 9 10 9 10 10 10 10 12 15 17 15 13 14 13 13 13 16 17 15 15 15 17 15 13 13 13 15 14 10 14 16 15 16 18 19 21 21 21 23 25 26 26 25 26 27 27 27 26
5 4 5 7 7 7 7 7 8 8 8 8 8 7 7 7 5 5 5 4 5 5 5 6 6 6 6 6 8 8 7 7 8 7 7 8 8 9 10 10 10 11 10 10 11 13 14 16 14 15 14 14 13 14 14 15 15 15 14 15 15 14 14 13 10 11 14 21 22 19 19 20 21 21 20 22 25 25 26 27 26 27 27 27 27
5 4 5 7 7 7 7 8 8 8 9 8 8 8 7 7 6 4 4 4 4 4 4 6 7 7 7 7 8 7 7 7 7 7 7 9 9 10 10 10 10 10 10 11 13 13 14 16 16 13 14 13 13 14 15 15 15 15 15 15 15 15 14 13 14 14 18 19 21 18 17 19 20 20 19 22 24 24 25 26 27 28 29 28 28
6 6 6 6 6 7 8 8 8 8 8 8 9 9 8 8 8 5 4 3 3 4 5 5 5 6 6 7 7 7 7 7 8 8 8 10 10 10 11 11 11 11 11 12 12 14 14 15 16 16 13 14 14 12 14 15 15 16 15 14 14 13 13 15 14 12 11 11 11 11 12 14 17 18 20 21 24 26 27 27 26 27 27 28 28
6 6 6 7 5 7 8 8 8 8 8 8 8 8 8 8 8 8 3 4 4 4 4 5 5 5 5 6 5 5 6 6 7 8 9 10 10 12 11 11 10 11 11 11 12 14 14 15 15 14 15 12 12 15 14 14 15 14 15 16 15 12 12 12 14 12 11 13 15 19 16 14 13 13 17 21 23 26 26 26 27 29 29 29 29
6 6 6 6 5 7 7 8 8 7 7 8 8 8 8 8 7 9 6 3 4 5 3 4 4 5 6 6 4 5 5 7 7 8 10 10 10 10 10 10 10 12 11 12 12 12 14 14 14 15 13 13 13 12 13 14 14 12 11 12 16 16 15 13 11 13 14 14 14 13 13 13 13 14 18 21 23 24 27 27 28 28 27 27 29
4 5 7 6 7 8 7 7 8 7 6 6 5 6 7 8 7 7 8 3 4 3 3 3 3 5 5 5 4 5 10 11 11 13 12 12 9 10 10 10 11 11 10 10 11 12 13 14 14 13 15 15 14 15 14 13 14 16 15 14 16 16 15 16 14 11 11 15 15 14 11 10 11 9 9 10 13 19 22 27 23 29 28 29 29
5 5 6 7 8 7 7 7 7 6 6 5 8 11 7 6 6 6 7 4 3 3 3 3 4 4 4 4 6 14 14 10 12 11 13 13 15 12 11 11 11 9 8 11 12 13 14 15 14 14 15 14 15 15 15 15 16 16 17 17 17 16 16 18 17 11 8 12 13 13 13 11 10 12 7 10 12 15 12 15 15 19 23 25 27
5 5 5 7 7 7 8 7 6 5 6 6 13 14 15 14 7 6 6 4 3 3 3 4 4 3 5 4 3 7 9 7 7 11 12 14 13 15 18 15 11 10 11 11 9 10 13 14 13 13 13 15 15 15 15 16 15 16 15 15 17 17 16 16 17 15 4 9 12 14 16 12 10 12 12 10 11 10 13 14 20 22 26 27 27
4 4 5 6 7 7 6 6 6 5 6 9 14 15 15 17 12 6 6 2 4 3 3 5 3 3 3 3 4 4 4 6 6 7 11 13 14 15 16 14 12 12 10 10 11 9 11 14 15 14 14 14 15 15 14 14 14 15 14 15 16 15 17 15 14 16 11 10 12 14 17 16 10 11 13 13 11 11 13 17 22 23 25 27 28
4 5 4 4 6 7 6 6 6 6 6 10 14 15 16 17 17 12 5 2 4 3 3 5 3 3 4 3 3 4 4 10 8 8 9 10 13 15 15 13 12 14 13 12 9 9 10 12 14 14 14 15 16 15 18 18 16 17 15 14 13 15 15 16 15 16 16 10 12 14 16 18 11 12 13 15 12 10 12 17 23 23 23 26 28
5 4 4 4 4 6 6 6 5 5 6 9 13 15 15 17 17 13 5 4 3 3 4 4 3 2 4 2 3 3 4 4 6 8 9 9 10 10 10 10 10 11 12 12 12 12 10 8 9 12 14 13 15 16 17 17 17 16 15 13 14 16 17 17 17 18 18 11 13 13 16 18 10 10 13 14 11 10 11 15 22 24 25 24 24
5 4 4 3 3 4 6 5 4 5 5 10 12 14 15 17 18 13 4 6 4 4 2 3 4 3 1 4 3 3 3 4 7 12 11 9 10 9 9 11 11 10 10 9 9 9 8 7 9 10 12 13 14 16 17 14 13 15 15 18 17 17 17 18 17 16 16 13 13 12 16 16 9 10 13 12 10 9 9 13 20 22 24 26 27
4 4 4 3 3 3 3 5 5 5 4 9 11 13 15 16 16 9 5 6 6 7 7 3 5 3 3 4 3 3 3 5 12 16 15 9 9 10 11 11 11 10 10 10 12 12 10 9 9 10 12 15 18 18 18 17 16 15 14 14 13 13 14 12 14 12 12 9 10 11 12 14 10 9 14 11 9 9 8 8 16 23 23 25 26
4 4 4 4 3 3 3 3 5 4 4 6 9 10 12 14 12 8 6 6 6 7 9 6 4 2 3 4 3 2 5 9 14 15 17 14 9 11 11 11 11 11 12 11 12 13 14 14 14 15 18 20 21 23 24 25 19 17 14 13 12 10 12 12 13 12 12 8 7 9 10 14 11 9 12 11 9 9 8 9 9 19 24 25 26
5 5 5 5 5 4 4 3 2 5 3 4 7 9 10 12 11 7 6 6 6 8 8 8 9 2 3 7 4 7 11 11 14 14 17 13 10 11 11 12 12 12 13 12 10 10 12 12 15 17 19 20 22 23 23 23 22 18 13 14 13 12 12 12 13 12 12 10 9 8 10 13 11 10 11 11 7 7 9 8 9 12 21 23 26
4 4 4 4 5 4 4 3 3 4 4 3 5 7 9 9 8 6 6 5 6 7 7 8 8 6 2 3 6 14 13 14 17 16 17 15 11 10 11 11 11 12 13 15 14 13 10 12 13 15 15 18 17 16 17 22 21 19 13 14 12 12 14 11 11 12 12 10 7 8 12 12 10 11 10 8 6 5 7 8 9 8 11 12 15
Wind_Direction
158 40 342 323 280 262 183 144 206 265 324 326 333 275 270 272 265 283 318 331 6 331 324 278 90 347 259 257 260 265 272 284 332 304 279 26 319 191 202 197 198 196 199 205 214 221 227 233 237 245 257 237 175 189 195 205 218 221 206 208 222 237 227 226 232 220 222 198 177 187 178 157 179 167 164 183 185 188 186 188 156 150 144 142 131
171 166 137 260 247 246 174 145 181 185 197 203 265 224 233 229 252 244 284 8 13 291 288 323 52 223 312 292 347 305 297 341 329 308 36 303 77 359 213 213 210 209 207 210 215 220 225 228 233 239 246 186 190 192 195 201 200 208 209 200 215 230 226 224 231 221 221 212 211 202 192 187 180 175 173 177 186 186 190 189 161 156 148 142 137
192 160 187 187 218 321 273 122 308 214 172 184 235 308 285 289 307 306 191 302 239 256 271 14 296 259 228 261 214 240 13 276 242 264 268 217 121 175 209 225 226 222 220 218 219 220 222 226 230 238 242 212 188 194 199 202 198 200 220 210 206 220 228 220 228 223 218 213 214 208 196 195 193 181 172 189 177 179 172 168 166 155 145 144 137
125 283 148 67 170 212 202 134 108 36 47 36 4 334 316 313 329 339 324 281 282 289 296 266 285 304 292 282 233 199 187 307 307 264 264 243 212 219 226 208 221 228 231 229 229 227 224 226 230 235 238 248 205 195 199 201 193 197 216 224 213 213 227 223 224 224 225 213 211 208 202 195 196 180 175 182 180 177 175 175 171 153 152 150 144
353 321 94 194 206 174 225 120 182 112 72 37 272 257 252 288 200 247 315 317 284 276 261 267 267 261 275 281 280 167 211 238 230 252 254 265 254 176 236 225 221 226 228 232 232 230 230 229 230 233 236 241 239 207 205 202 196 196 198 224 212 216 219 227 227 230 228 219 220 214 204 203 198 183 177 176 173 174 171 171 174 158 158 154 148
69 44 28 354 267 316 62 352 71 94 16 201 313 268 211 254 282 300 303 315 312 297 323 322 301 299 293 304 314 299 261 216 246 260 212 215 192 168 207 235 240 227 227 233 232 231 232 232 232 235 237 238 242 245 235 238 207 202 202 216 210 210 217 222 227 227 228 228 219 217 211 206 203 190 181 171 167 167 169 172 178 174 161 158 155
87 107 8 352 2 252 63 64 351 12 46 345 336 322 7 349 10 344 350 307 309 324 307 288 304 309 307 331 310 310 305 285 279 290 288 274 227 218 225 227 222 197 202 206 221 226 226 232 232 234 236 238 240 243 244 242 217 204 207 213 214 211 216 215 221 223 224 229 221 219 215 211 205 194 183 175 168 168 170 170 177 173 163 157 154
18 33 15 296 36 19 5 43 22 11 48 13 335 356 332 28 9 346 338 329 327 313 310 301 293 298 310 287 275 276 284 289 292 289 288 304 295 275 246 233 228 217 191 209 208 217 221 225 228 230 233 236 238 240 241 243 244 239 217 212 214 211 219 213 213 217 219 220 221 219 215 214 207 201 184 180 174 172 169 169 170 169 163 161 150
38 49 307 349 34 357 11 48 277 58 41 358 11 6 356 347 334 326 317 313 308 303 310 311 301 281 269 277 286 282 274 276 273 278 289 285 280 277 271 265 254 271 231 215 221 223 216 221 227 228 229 233 235 237 238 240 243 245 236 213 215 215 216 212 212 216 217 214 217 219 214 213 209 205 188 184 177 179 169 170 173 167 162 159 157
25 32 5 3 46 29 22 3 11 31 35 358 17 354 360 4 340 331 319 325 315 311 320 323 314 303 300 292 278 270 268 262 257 256 256 265 261 267 265 258 244 235 245 241 235 215 203 215 224 227 228 230 232 232 235 237 236 240 219 215 223 219 219 217 217 214 214 213 214 217 216 210 211 207 200 185 185 185 173 172 174 171 167 165 163
35 28 19 9 25 27 21 18 20 29 27 26 13 9 2 353 336 333 329 299 306 316 305 301 301 307 302 295 288 277 263 249 252 260 267 267 273 273 274 263 254 250 250 254 242 228 231 187 205 218 228 230 231 231 232 234 234 234 229 229 228 226 225 223 213 213 213 210 211 214 216 208 210 207 204 195 188 187 182 174 176 173 173 169 167
38 29 22 23 31 31 31 25 25 31 34 30 24 22 7 9 5 349 345 342 326 325 333 328 311 302 286 280 274 268 256 245 232 230 243 257 269 268 264 268 256 246 238 249 258 263 263 189 199 205 218 225 226 230 230 230 232 233 232 230 230 230 227 223 220 216 211 213 210 209 213 208 208 208 206 202 195 193 188 183 177 178 176 174 171
36 32 28 20 21 34 30 35 26 24 29 30 26 18 7 8 1 352 357 353 345 351 3 347 317 312 324 310 304 287 270 252 231 226 236 273 274 270 265 277 276 272 275 267 262 257 244 238 216 199 213 223 216 223 224 227 229 229 231 231 231 231 229 225 221 218 215 211 211 210 206 210 205 209 209 202 205 201 192 190 186 180 179 178 175
30 37 34 23 18 23 31 36 35 22 18 25 26 16 11 7 8 354 0 346 342 354 6 354 353 348 332 325 305 302 312 314 314 61 356 287 277 276 271 262 274 271 265 259 252 251 247 230 226 204 198 211 218 201 223 227 228 228 229 232 233 232 231 227 221 219 217 213 212 208 204 208 208 207 213 204 203 208 196 192 192 185 180 181 181
29 32 32 24 21 17 15 30 27 19 8 17 14 21 6 4 15 356 346 346 340 355 4 1 331 337 309 302 336 329 323 6 20 7 284 271 262 264 271 271 270 271 269 284 300 297 295 280 240 220 183 201 219 208 195 212 221 225 227 229 231 232 231 230 225 222 218 216 215 211 206 205 207 206 209 211 204 211 202 195 194 188 182 181 180
36 36 36 30 23 20 9 19 27 17 7 4 7 14 4 4 10 4 356 351 352 351 350 339 348 355 348 339 299 292 300 13 346 327 301 281 290 296 284 269 274 280 270 269 273 271 269 269 270 235 222 209 203 201 195 207 218 223 224 225 228 230 232 230 229 226 221 217 219 214 208 202 205 207 207 211 201 207 205 200 196 190 183 182 179
40 37 32 32 24 19 14 5 25 24 11 352 12 14 7 6 11 6 9 2 350 343 342 354 4 348 1 340 335 325 354 329 335 303 336 345 326 314 315 311 299 282 257 254 260 263 263 276 285 287 246 227 215 208 212 205 216 218 221 223 224 227 228 231 232 229 226 216 217 215 208 203 207 201 206 205 199 197 201 203 199 195 188 184 181
34 38 32 27 26 18 17 9 13 14 348 358 32 22 8 13 6 10 3 15 353 335 351 353 356 358 22 4 350 330 329 327 321 322 327 310 330 333 322 308 302 302 297 294 292 294 292 285 288 289 297 268 240 218 212 221 222 211 215 219 220 223 225 228 231 231 231 224 218 217 210 200 202 200 202 205 203 198 197 202 200 195 194 188 184
37 30 31 31 22 23 27 15 12 8 359 40 27 27 13 10 15 18 15 8 5 2 2 355 347 3 7 354 351 345 345 347 340 327 323 330 337 337 332 342 348 341 332 330 325 317 309 303 290 279 271 265 256 232 222 224 227 229 217 215 214 218 221 223 226 230 230 221 220 219 208 205 201 197 197 203 206 198 195 200 199 198 194 190 184
35 30 31 28 20 40 31 30 12 7 16 38 25 23 359 32 33 21 20 16 19 18 357 1 359 349 352 349 350 344 345 329 330 328 323 326 325 331 334 340 338 331 331 346 340 334 333 329 317 304 289 275 270 264 234 231 229 228 229 224 219 212 217 218 219 224 228 225 219 224 224 209 202 199 197 201 200 203 197 197 200 196 197 188 190
40 32 40 31 21 25 34 38 21 13 18 34 26 14 2 39 28 31 23 24 18 9 360 10 1 354 348 356 342 347 345 344 345 357 347 336 322 330 329 332 328 322 345 340 340 341 338 330 322 316 306 294 277 279 315 326 309 283 246 231 225 223 218 218 217 218 220 227 220 216 220 213 206 200 197 201 195 202 198 198 199 197 198 191 193
50 34 23 42 29 22 23 42 31 22 24 33 22 5 33 36 30 37 32 28 20 3 21 13 359 0 1 349 351 353 349 349 2 349 342 335 332 327 330 330 326 329 334 336 338 335 332 324 319 314 306 298 350 12 3 356 326 318 336 331 295 251 225 220 217 213 217 222 226 215 217 216 215 206 194 197 198 200 199 198 196 198 196 192 192
64 42 33 34 36 31 23 37 39 27 27 35 22 19 36 41 35 41 44 38 28 22 24 17 3 4 5 2 0 359 347 346 351 351 346 340 334 324 323 324 327 320 323 329 326 323 316 312 321 323 335 3 19 4 358 348 326 308 312 313 294 284 269 262 244 232 219 217 222 221 214 214 214 212 205 196 200 199 204 201 200 199 196 196 193
66 60 33 39 37 31 33 34 40 30 26 29 37 16 35 55 37 52 33 34 30 19 40 13 8 7 12 360 357 333 339 351 355 347 341 337 328 321 323 329 318 312 315 316 316 310 319 327 320 324 346 339 350 8 332 336 303 316 316 303 291 254 249 257 246 243 229 217 216 218 217 219 220 211 209 200 201 202 200 204 204 201 198 201 200
47 42 43 49 40 35 40 35 35 33 27 24 36 21 5 55 30 41 35 33 24 12 28 10 12 360 357 323 294 316 354 356 353 334 332 329 329 324 322 323 315 317 317 319 317 322 319 317 336 343 334 331 341 351 343 352 343 328 312 300 297 263 247 243 248 244 238 226 216 209 222 223 219 212 210 208 204 204 203 203 203 199 199 198 201
57 45 35 48 50 48 41 42 37 36 32 23 34 27 11 38 33 16 24 5 31 6 7 11 19 355 19 347 338 355 25 20 360 351 349 341 338 330 325 320 315 312 314 317 322 317 321 334 334 326 323 336 345 341 345 340 339 322 311 298 298 279 251 234 230 233 237 236 227 207 217 222 221 216 206 209 208 202 202 199 205 193 195 194 198
61 45 39 39 53 54 51 38 37 33 33 28 25 31 16 38 36 10 13 350 28 24 13 17 13 5 18 347 340 14 33 11 354 7 341 344 330 335 337 328 324 320 321 319 316 317 318 323 329 326 332 338 337 334 336 329 320 324 323 307 305 295 272 248 234 229 235 235 224 213 213 215 215 213 208 206 206 204 201 196 200 201 195 193 195
68 65 48 44 37 50 49 45 36 32 29 30 29 27 22 29 36 13 7 353 22 31 17 14 15 9 5 353 358 27 27 2 0 4 348 339 346 346 340 330 328 323 324 319 325 313 328 322 323 328 334 333 329 329 321 318 317 318 312 304 298 288 272 251 236 227 235 242 236 219 219 218 211 214 210 204 207 209 203 194 195 198 197 192 193
79 68 65 51 49 48 50 45 38 32 26 27 30 28 27 16 30 20 5 360 20 26 20 22 19 14 356 19 19 18 17 355 2 2 347 350 357 350 341 340 335 321 322 319 322 322 323 331 326 324 330 330 328 324 322 321 312 306 304 305 305 288 267 254 244 236 229 233 236 231 225 224 213 212 212 210 207 206 199 197 195 194 195 194 192
76 78 73 62 50 52 52 45 45 36 32 24 26 28 27 22 12 24 2 0 20 12 24 29 23 16 356 34 32 21 10 357 8 1 359 4 2 355 348 343 338 329 324 316 314 317 313 323 320 318 323 323 324 320 321 311 305 305 312 318 311 304 275 253 248 245 241 236 235 232 229 225 215 214 212 210 211 209 203 199 195 193 191 193 195
71 70 69 63 59 49 47 53 40 42 34 28 21 24 29 23 15 15 4 6 22 12 22 21 23 20 356 22 32 25 16 2 13 4 12 10 2 353 345 342 340 336 330 320 309 314 322 314 318 317 317 318 321 317 308 307 314 320 315 306 306 306 305 273 253 248 247 244 239 234 230 227 220 216 213 210 211 207 201 199 195 193 193 189 191
68 65 60 60 61 60 44 40 43 36 38 27 17 23 13 27 24 7 12 11 25 18 15 24 23 18 3 18 24 23 19 11 19 12 12 5 355 346 343 340 334 333 327 317 307 304 316 312 314 316 316 318 318 311 312 313 313 310 308 306 305 308 304 298 268 253 252 249 243 236 231 227 221 218 214 214 213 209 206 203 194 193 192 188 190
79 67 65 63 55 50 52 46 37 32 34 25 16 19 8 8 29 13 15 13 18 25 16 28 29 11 20 12 27 28 22 23 22 10 4 358 350 341 338 335 329 328 324 317 311 306 304 307 310 311 315 314 313 318 317 316 313 311 311 311 307 303 300 294 296 273 253 250 244 237 230 226 221 219 219 217 214 212 207 204 199 194 191 189 190
73 73 70 66 72 63 54 46 36 35 25 25 15 8 10 354 11 21 13 16 21 25 24 25 23 15 24 21 31 30 24 15 20 7 1 356 344 339 337 333 326 321 320 315 310 309 308 316 313 312 308 316 313 320 316 315 314 316 313 312 308 305 307 308 304 298 268 257 248 237 230 228 226 221 218 214 215 213 210 201 200 195 192 190 190
70 75 67 63 58 61 56 48 41 35 29 19 16 4 8 354 353 23 15 14 28 22 14 33 28 20 26 24 41 34 18 17 14 360 356 348 342 338 334 329 324 321 320 319 317 312 313 312 316 314 319 319 315 316 313 312 313 313 315 314 314 313 309 305 297 295 310 295 268 250 241 234 231 225 218 215 215 215 210 203 200 196 192 190 189
77 65 72 70 67 56 52 50 42 38 27 21 14 5 3 349 344 23 17 15 33 18 10 39 29 25 25 25 44 29 23 14 7 354 351 345 340 335 328 326 322 324 324 323 321 314 313 311 316 317 317 315 313 312 313 311 314 315 315 314 310 304 300 296 311 323 314 309 293 259 242 236 233 229 216 213 216 215 211 205 200 199 194 191 188
80 82 77 77 68 62 55 45 40 36 30 22 17 5 360 343 338 23 14 23 40 11 19 34 35 31 21 31 42 27 17 9 358 350 345 346 339 332 328 328 329 330 328 326 321 317 313 311 312 314 313 309 311 312 314 316 316 315 314 309 308 309 313 323 324 314 311 307 305 278 255 240 233 229 215 213 217 216 217 211 201 198 196 190 188
87 76 71 60 67 65 56 48 42 37 33 26 18 7 357 346 338 343 31 8 27 36 16 41 46 32 38 22 35 31 3 8 353 350 358 347 336 331 332 334 335 332 328 324 322 319 315 312 314 313 317 318 317 315 317 316 316 314 312 310 308 313 318 314 309 307 308 316 319 312 281 258 239 227 219 213 215 215 215 210 202 201 197 191 187
96 90 81 80 72 66 63 55 45 36 33 29 18 3 353 346 339 325 39 348 30 48 19 32 38 46 39 35 32 22 6 7 3 13 356 345 341 338 338 338 335 327 323 323 319 319 319 316 315 315 314 315 315 314 316 313 310 310 311 312 310 312 306 307 308 309 315 317 317 311 297 273 247 229 224 222 216 213 213 214 204 201 198 191 186
86 92 95 91 86 75 66 63 52 40 31 29 17 1 348 344 336 327 343 27 22 33 18 29 37 46 33 30 13 15 25 25 38 11 1 349 342 338 338 328 324 320 320 323 322 324 324 321 318 316 315 314 313 307 308 312 312 308 307 310 308 310 309 306 306 314 316 316 308 308 305 288 268 240 228 224 219 213 211 211 207 202 198 194 186
74 87 90 83 78 72 69 64 58 42 33 23 21 358 343 342 336 337 324 354 34 26 18 11 46 50 28 23 343 34 29 52 42 23 357 345 341 336 328 319 316 315 314 322 327 326 324 320 316 315 315 315 316 317 318 319 317 316 316 311 304 304 306 307 303 305 306 307 304 296 291 307 298 261 229 221 224 218 213 210 209 204 198 193 189
79 78 89 87 76 70 63 61 60 48 27 20 355 6 10 357 326 330 320 330 25 23 7 344 63 55 40 24 346 29 33 32 34 10 349 342 344 338 317 315 316 312 307 326 328 327 324 320 318 317 315 314 317 319 317 315 312 312 311 311 307 308 306 301 296 293 302 295 293 304 311 310 317 306 268 230 227 212 213 210 211 202 197 194 189
90 94 91 90 83 71 67 59 54 50 30 5 358 5 357 5 1 326 313 323 359 4 14 342 50 33 43 10 346 30 30 16 21 4 348 343 340 330 317 307 301 319 332 327 315 319 323 322 319 316 313 312 315 318 315 312 312 310 310 308 302 302 300 300 300 303 260 304 312 307 299 304 320 308 299 264 237 213 210 208 206 201 196 193 192
89 85 88 96 94 84 73 66 54 43 30 9 4 4 1 355 358 339 303 344 326 37 15 341 34 42 51 15 358 49 14 358 11 355 347 338 336 327 315 312 321 330 329 326 325 324 330 327 321 321 317 314 314 314 311 312 310 308 302 300 297 295 293 290 288 289 302 317 305 304 296 295 301 294 295 284 254 226 211 206 202 203 197 193 193
87 81 77 85 102 101 86 69 55 37 28 11 7 7 2 357 351 344 306 349 340 31 35 334 19 15 61 21 10 13 17 353 8 346 340 336 331 321 311 321 328 333 330 322 321 330 327 322 323 317 318 315 311 310 310 306 305 300 301 296 295 291 286 284 283 287 289 307 301 289 288 288 296 290 285 279 272 237 220 208 203 199 201 198 193
89 87 82 82 97 101 97 87 67 44 28 4 13 6 3 357 349 343 291 353 346 1 31 345 334 22 73 25 23 27 1 8 353 345 337 336 328 322 322 326 324 324 324 327 329 323 319 308 304 308 303 300 301 300 298 298 301 299 298 293 291 288 285 279 282 281 283 287 277 283 281 280 282 278 272 276 270 243 221 208 203 198 196 197 198
114 104 93 82 72 97 105 99 83 60 25 11 17 9 3 0 349 338 353 349 354 332 39 323 305 83 61 63 53 34 0 2 353 345 337 333 325 317 318 321 319 323 322 323 324 323 316 305 300 282 292 300 299 301 301 292 283 286 287 288 286 282 281 280 277 267 270 259 252 251 266 278 278 269 268 269 268 240 220 208 201 201 199 196 194
100 101 95 83 70 67 99 109 101 76 42 22 20 11 3 2 351 338 351 7 351 343 334 351 342 69 50 79 68 3 11 349 354 341 329 331 323 321 319 315 313 314 319 315 307 308 300 291 293 298 303 302 300 301 300 298 296 290 285 284 283 278 275 273 274 275 265 258 237 242 257 270 268 267 274 267 252 241 216 213 197 199 203 202 198
109 105 104 92 74 60 41 68 107 92 62 25 29 17 4 1 356 342 341 14 350 347 331 333 343 83 62 78 46 33 7 8 347 334 326 333 324 320 316 314 310 310 317 319 315 316 310 289 281 294 304 305 306 306 305 300 296 296 295 292 285 285 281 281 282 279 276 274 255 238 255 267 268 263 270 263 240 233 221 211 197 198 200 204 203
135 134 129 118 111 85 69 48 50 112 86 43 37 23 12 0 355 344 341 10 357 344 335 337 329 64 100 83 61 32 17 357 333 327 323 326 323 316 314 315 314 315 319 320 319 319 298 307 322 322 318 316 313 310 307 306 304 301 296 294 291 291 285 282 284 283 285 277 268 264 266 262 274 264 265 265 240 226 221 209 195 197 200 201 204
142 141 130 132 130 130 118 113 53 108 125 96 50 35 18 3 359 342 349 15 351 347 332 330 319 331 94 173 40 29 9 337 327 323 321 322 318 312 313 311 311 319 322 324 322 320 318 336 331 328 322 318 316 313 310 308 304 301 298 294 291 289 291 284 282 287 286 272 256 236 244 257 258 258 255 255 235 224 207 203 194 188 191 199 203